Regional Weather Roundup
Issued by NWS State College, PA

Home | Current Version | Previous Version | Text Only | Print | Product List | Glossary Off
Versions: 1 2 3 4 5 6 7 8 9 10 11 12 13 14 15 16 17 18 19 20 21 22 23 24 25 26 27 28 29 30 31 32 33 34 35 36 37 38 39 40 41 42 43 44 45 46 47 48 49 50

660
ASUS41 KCTP 271903
RWRCTP

REGIONAL WEATHER ROUNDUP
NATIONAL WEATHER SERVICE STATE COLLEGE PA
300 PM EDT WED JUL 27 2016

Note: "fair" indicates few or no clouds below 12,000 feet with no
significant weather and/or obstructions to visibility.

* = STATION THAT DOES NOT REPORT PRECIPITATION /E.G. RAIN...SNOW...ETC/
    THUNDER OR FOG.

PAZ002>004-007>009-013>016-020>023-029>032-272000-
WESTERN PENNSYLVANIA

CITY           SKY/WX    TMP DP  RH WIND       PRES   REMARKS
ERIE           SUNNY     84  62  47 NW9       29.99F
MEADVILLE      MOSUNNY   81  58  45 NW8       30.02F
FRANKLIN*      PTSUNNY   84  61  45 CALM      30.03F
NEW CASTLE     FAIR      86  59  39 NE6       30.01F
BEAVER COUNTY  SUNNY     88  57  35 W3        30.01F
BUTLER*        SUNNY     86  59  39 W8        30.04F
PITTSBURGH INT PTSUNNY   87  55  33 W3        30.00F
PITTSBURGH     MOSUNNY   86  61  42 VRB5      30.00F
INDIANA*       SUNNY     84  55  37 CALM      30.04F
LATROBE        PTSUNNY   86  61  42 VRB6      30.02F
WASHINGTON CO* MOSUNNY   88  63  42 SW5       30.01F
$$

PAZ004>006-010>012-017>019-024>028-033>037-041-042-045-046-049>053-272000-
CENTRAL PENNSYLVANIA

CITY           SKY/WX    TMP DP  RH WIND       PRES   REMARKS
BRADFORD       PTSUNNY   80  58  46 NW9       30.05F
DUBOIS         SUNNY     84  55  36 VRB5      30.02F
CLEARFIELD     SUNNY     87  53  31 VRB5      30.01F
JOHNSTOWN      MOSUNNY   83  52  34 MISG      30.05F
ALTOONA        SUNNY     90  55  30 N9        30.01F
STATE COLLEGE  MOSUNNY   86  57  37 VRB3      29.98F
WILLIAMSPORT   MOSUNNY   90  54  29 VRB5      29.93F
SELINSGROVE    MOSUNNY   88  66  48 N6        29.95F
FT INDIANTOWN  MOSUNNY   87  62  43 VRB5      29.95F
CAPITAL CITY   SUNNY     91  58  32 NW9       29.94F
HARRISBURG     PTSUNNY   90  66  45 VRB3      29.93F
YORK           SUNNY     89  66  46 SW5       29.94F
$$

PAZ038>040-043-044-047-048-054-055-060>062-067>071-272000-
EASTERN PENNSYLVANIA

CITY           SKY/WX    TMP DP  RH WIND       PRES   REMARKS
SCRANTON       MOSUNNY   88  58  36 VRB5      29.97F
MOUNT POCONO   SUNNY     82  53  36 VRB5      30.02F
ALLENTOWN      MOSUNNY   88  62  41 CALM      29.94F
QUAKERTOWN*    CLEAR     90  63  40 CALM      29.96S
READING        MOSUNNY   91  59  33 NE6       29.93F
LANCASTER      PTSUNNY   87  62  43 CALM      29.95F
COATESVILLE    CLOUDY    86  64  48 CALM      29.97F
POTTSTOWN      CLOUDY    90  63  40 VRB5      29.95F
BLUE BELL      MOSUNNY   86  64  48 SE3       29.93F
DOYLESTOWN     SUNNY     89  60  37 VRB5      29.93F
WILLOW GROVE   NOT AVBL
NORTH PHILA    MOSUNNY   93  66  40 NE6       29.94S HX  96
PHILADELPHIA   MOSUNNY   92  65  40 SE7       29.92S
$$




USA.gov is the U.S. government's official web portal to all federal, state and local government web resources and services.